CST,Max TemperatureF,Mean TemperatureF,Min TemperatureF,Max Dew PointF,MeanDew PointF,Min DewpointF,Max Humidity, Mean Humidity, Min Humidity, Max Sea Level PressureIn, Mean Sea Level PressureIn, Min Sea Level PressureIn, Max VisibilityMiles, Mean VisibilityMiles, Min VisibilityMiles, Max Wind SpeedMPH, Mean Wind SpeedMPH, Max Gust SpeedMPH,PrecipitationIn, CloudCover, Events, WindDirDegrees
2013-2-1,75,66,56,52,48,44,77,56,35,30.32,30.25,30.19,10,10,10,18,10,24,T,4,,112
2013-2-2,81,71,60,60,56,52,84,63,42,30.24,30.18,30.12,10,10,10,14,5,38,0.00,5,,136
2013-2-3,79,69,58,59,54,46,87,60,32,30.28,30.18,30.02,10,10,10,18,7,23,0.00,3,,116
2013-2-4,88,74,59,62,58,53,90,61,31,30.00,29.88,29.77,10,10,10,18,8,24,0.00,1,,149
2013-2-5,90,76,61,68,62,57,100,67,34,29.96,29.89,29.82,10,9,2,18,9,22,0.00,1,,138
2013-2-6,87,78,68,70,66,60,90,66,42,29.93,29.88,29.75,10,10,5,20,9,25,0.01,6,Rain,122
2013-2-7,84,75,66,66,64,63,93,72,51,29.99,29.91,29.86,10,9,5,12,5,14,0.00,5,,19
2013-2-8,78,69,60,64,59,52,100,73,45,30.18,30.08,30.00,10,7,0,17,9,22,T,4,Fog-Rain,42
2013-2-9,85,73,60,68,64,57,90,73,55,30.06,29.92,29.78,10,10,8,30,15,36,T,6,,128
2013-2-10,96,82,68,69,65,59,84,58,32,29.89,29.79,29.70,10,9,8,24,11,30,0.00,3,,134
2013-2-11,85,75,64,65,59,52,93,69,44,29.97,29.89,29.80,10,10,8,18,9,24,0.00,7,,3
2013-2-12,81,70,59,63,58,50,93,70,47,29.97,29.86,29.78,10,9,4,18,8,28,0.00,5,,350
2013-2-13,72,63,53,52,38,23,63,40,17,30.15,30.06,29.97,10,10,10,20,9,26,0.00,4,,18
2013-2-14,76,61,46,45,40,32,82,52,21,30.16,30.08,30.01,10,10,10,17,4,22,T,0,,101
2013-2-15,80,65,50,51,45,39,83,53,23,30.26,30.12,30.04,10,10,10,21,7,28,0.00,1,,74
2013-2-16,69,59,48,46,32,22,56,37,17,30.48,30.37,30.28,10,10,10,23,10,30,T,3,,38
2013-2-17,72,59,45,58,48,35,71,58,44,30.29,30.12,29.99,10,10,10,33,16,43,0.00,5,,139
2013-2-18,88,77,66,63,61,59,87,63,39,29.99,29.91,29.82,10,10,9,28,15,37,0.00,4,,154
2013-2-19,77,69,60,63,60,57,93,76,58,30.15,30.06,29.99,10,9,4,23,12,30,0.00,5,,80
2013-2-20,84,75,66,66,64,62,90,74,58,29.98,29.85,29.64,10,10,9,35,19,43,0.00,7,,131
2013-2-21,92,81,70,66,61,50,90,63,36,29.82,29.67,29.60,10,10,8,25,13,32,0.00,3,,107
2013-2-22,81,74,66,61,55,50,73,60,47,29.90,29.83,29.77,10,10,10,15,9,22,0.00,6,,16
2013-2-23,79,69,59,56,48,44,73,53,32,30.03,29.93,29.85,10,10,10,20,10,25,0.00,4,,23
2013-2-24,81,70,59,66,60,55,90,73,56,29.89,29.76,29.62,10,10,10,16,8,21,0.00,6,,127
2013-2-25,79,68,56,67,39,-2,93,49,5,29.91,29.69,29.54,10,8,2,35,16,47,0.00,4,,315
2013-2-26,77,61,44,43,25,17,55,33,11,30.05,29.96,29.88,10,10,10,20,7,23,T,0,,257
2013-2-27,81,65,49,49,35,17,83,47,10,30.17,30.01,29.88,10,10,10,22,8,29,T,0,Rain,15
2013-2-28,70,60,50,34,26,16,44,28,12,30.31,30.24,30.17,10,10,10,21,10,29,0.00,1,,14